[[{"header":{"parameterUnit":"m.s-1","parameterCategory":1,"la1":30.2991,"la2":30.254,"lo1":-89.0895,"lo2":-89.0444,"dy":0.0017,"dx":0.0017,"nx":28,"ny":28,"refTime":"2024-05-23T03:00:00:Z","depth":0,"parameterNumber":2,"parameterNumberName":"U-component_of_WINDS"},"data":[0,0,0,0,0,0,0,0,0,0,0,0,0,0,0,0,0,0,0,0,0,0,0,0,0,0,0,0,0,0,0,0,0,0,0,0,0,0,0,0,0,0,0,0,0,0,0,0,0,0,0,0,0,0,0,0,0,0,0.2368,0.2367,0,0.2317,0.2317,0.2316,0.2306,0.2307,0.2307,0.2307,0.2252,0.225,0.2249,0,0,0,0,0,0,0,0,0,0,0,0,0,0.2453,0.2451,0.2368,0.2367,0.2367,0.2318,0.2317,0.2316,0.2306,0.2307,0.2307,0.2308,0.2253,0.2251,0.2248,0,0,0,0,0,0,0,0,0,0,0,0,0,0.2411,0.2451,0.2368,0.2356,0.2354,0.2318,0.2317,0.2316,0.2306,0.2307,0.2307,0.2308,0.2254,0.2251,0.2248,0.2219,0,0,0.224,0.2238,0,0,0,0,0,0,0,0,0.2413,0.2407,0.2358,0.2357,0.2355,0.2319,0.2326,0.2283,0.2306,0.2324,0.2307,0.2308,0.2274,0.2269,0.2258,0.2216,0.2214,0.2239,0.2238,0.2237,0.2236,0,0,0,0,0,0,0,0.2416,0.241,0.2348,0.2358,0.2356,0.2352,0.2347,0.2318,0.2296,0.2323,0.2322,0.2316,0.2273,0.2261,0.2257,0.2213,0.224,0.2237,0.2235,0.2234,0.2145,0.2144,0,0,0,0,0,0,0.2421,0.2412,0.235,0.2346,0.2386,0.235,0.2344,0.233,0.2296,0.2292,0.2316,0.2316,0.2265,0.226,0.2255,0.2219,0.2237,0.2234,0.2232,0.2146,0.2145,0.2144,0,0,0,0,0,0,0.2423,0.2416,0.2352,0.2379,0.2371,0.2348,0.2332,0.2328,0.2317,0.2291,0.2287,0.2308,0.2266,0.2259,0.2228,0.2217,0.2233,0.223,0.2146,0.2145,0.2144,0.2147,0,0,0,0,0,0,0.2426,0.2417,0.2406,0.2379,0.2369,0.2327,0.2331,0.2327,0.2312,0.2312,0.2283,0.2279,0.2266,0.2233,0.2226,0.2214,0.2228,0.2147,0.2146,0.2145,0.2148,0.2147,0.2145,0,0,0,0,0,0.2429,0.2408,0.2406,0.2398,0.2356,0.2326,0.232,0.2307,0.2312,0.23,0.2284,0.2279,0.2219,0.2229,0.2222,0.2209,0.2148,0.2146,0.2145,0.2149,0.2147,0.2145,0,0,0,0,0,0,0.2434,0.2404,0.2401,0.2371,0.2352,0.2325,0.231,0.2305,0.2283,0.2284,0.2267,0.226,0.2231,0.2216,0.2228,0.2179,0.2184,0.218,0.219,0.2187,0.2186,0.2191,0.2226,0,0,0,0,0,0.2431,0.2411,0.2386,0.2362,0.2352,0.2333,0.232,0.2311,0.2289,0.228,0.2262,0.224,0.2216,0.2201,0.2177,0.2146,0.2139,0.2133,0.2131,0.213,0.2128,0.211,0.2107,0.2139,0.2139,0.2139,0,0,0.2426,0.2408,0.2396,0.2362,0.2346,0.2325,0.2326,0.2303,0.2287,0.2277,0.2247,0.2233,0.2207,0.2176,0.2161,0.2163,0.2117,0.2128,0.2127,0.2126,0.2108,0.2105,0.2103,0.2138,0.2138,0.2138,0,0,0.2406,0.239,0.2369,0.2353,0.2328,0.2315,0.231,0.2284,0.2274,0.2245,0.2237,0.2216,0.2176,0.2158,0.2144,0.2117,0.2112,0.2109,0.2102,0.2085,0.2082,0.208,0.2071,0.2068,0.2107,0.2107,0.2107,0,0.2403,0.2371,0.2358,0.2336,0.2322,0.2312,0.229,0.2275,0.2243,0.2233,0.2236,0.2185,0.2167,0.2132,0.2125,0.2114,0.2107,0.2113,0.2084,0.2082,0.2079,0.2071,0.2067,0.2107,0.2107,0.2107,0.2107,0,0.2368,0.2347,0.2332,0.2304,0.2287,0.2265,0.2248,0.2233,0.2225,0.2212,0.2182,0.216,0.2132,0.2123,0.2115,0.2086,0.2089,0.2088,0.2093,0.2077,0.2068,0.2065,0.2107,0.2107,0.2107,0.2107,0,0,0.2351,0.2316,0.2311,0.2298,0.227,0.2253,0.2229,0.2204,0.2191,0.2169,0.215,0.2115,0.2115,0.2098,0.2088,0.2073,0.2054,0.2074,0.2073,0.2072,0.2022,0.2024,0.202,0.205,0.2049,0.2049,0.2024,0,0.2328,0.2289,0.2276,0.2243,0.2223,0.2214,0.2193,0.2174,0.216,0.214,0.2125,0.2101,0.2102,0.2092,0.2077,0.206,0.2044,0.2061,0.2031,0.203,0.2039,0.2015,0.2017,0.1995,0.2021,0.202,0.202,0,0.2297,0.2277,0.2242,0.2217,0.2208,0.2191,0.2166,0.2147,0.2124,0.2115,0.2097,0.2088,0.2063,0.2069,0.2033,0.2045,0.2032,0.2022,0.202,0.2018,0.2025,0.2013,0.1988,0.1985,0.2014,0.2015,0.2015,0,0.2289,0.2252,0.2227,0.2216,0.2186,0.2175,0.2161,0.2139,0.2124,0.2102,0.2092,0.2067,0.2053,0.2033,0.2017,0.2023,0.1983,0.1987,0.1975,0.1976,0.1968,0.1969,0.1942,0.1958,0.1958,0.1958,0.1958,0,0.2266,0.2245,0.2223,0.2208,0.2184,0.2169,0.2146,0.2132,0.2112,0.2093,0.2082,0.2064,0.2044,0.2023,0.2009,0.1983,0.1976,0.1968,0.1965,0.1969,0.1971,0.1961,0.1963,0.1957,0.1957,0.1958,0.1958,0,0.2253,0.2238,0.221,0.2184,0.2177,0.2161,0.2139,0.2123,0.2109,0.2085,0.2078,0.2056,0.2031,0.2013,0.1979,0.1971,0.1942,0.1938,0.1951,0.1949,0.1938,0.194,0.1905,0.1899,0.1919,0.1918,0.1918,0,0.224,0.2224,0.2198,0.2185,0.2172,0.2151,0.2137,0.2121,0.2106,0.2079,0.2066,0.204,0.2019,0.1979,0.1959,0.1933,0.193,0.1919,0.1926,0.1931,0.193,0.1932,0.1931,0.1918,0.1918,0.1918,0.1918,0,0.2219,0.2212,0.2192,0.217,0.2153,0.2134,0.2115,0.2104,0.2085,0.2068,0.2043,0.2027,0.1994,0.1968,0.1941,0.1926,0.1918,0.1916,0.1912,0.1917,0.1925,0.1922,0.1949,0.1917,0.1917,0.1917,0.1917,0.1917,0.2206,0.2192,0.2171,0.2149,0.2134,0.2116,0.21,0.2085,0.2064,0.2037,0.2028,0.2002,0.1979,0.1942,0.1926,0.1905,0.1905,0.1899,0.1898,0.1897,0.1898,0.1928,0.19,0.19,0.19,0.19,0.19,0,0.2185,0.2172,0.2152,0.2126,0.2109,0.2104,0.2083,0.2068,0.2046,0.2026,0.2006,0.1977,0.1952,0.193,0.1904,0.1891,0.1887,0.1885,0.1886,0.1883,0.1899,0.1905,0.1888,0.1888,0.1888,0.1888,0.1888,0.1888,0.2172,0.2148,0.2139,0.2107,0.2093,0.2069,0.2057,0.204,0.2024,0.1993,0.1973,0.1959,0.1938,0.191,0.1887,0.1881,0.1872,0.1871,0.1865,0.188,0.1881,0.1883,0.1889,0.1869,0.1869,0.185,0.185,0.185]},{"header":{"parameterUnit":"m.s-1","parameterCategory":1,"la1":30.2991,"la2":30.254,"lo1":-89.0895,"lo2":-89.0444,"dy":0.0017,"dx":0.0017,"nx":28,"ny":28,"refTime":"2024-05-23T03:00:00:Z","depth":0,"parameterNumber":3,"parameterNumberName":"V-component_of_WINDS"},"data":[0,0,0,0,0,0,0,0,0,0,0,0,0,0,0,0,0,0,0,0,0,0,0,0,0,0,0,0,0,0,0,0,0,0,0,0,0,0,0,0,0,0,0,0,0,0,0,0,0,0,0,0,0,0,0,0,0,0,3.7072,3.707,0,3.6932,3.6931,3.6929,3.6921,3.6922,3.6924,3.6925,3.6773,3.6768,3.6762,0,0,0,0,0,0,0,0,0,0,0,0,0,3.7323,3.7318,3.7072,3.707,3.7068,3.6932,3.693,3.6929,3.692,3.6922,3.6924,3.6926,3.6775,3.6769,3.6762,0,0,0,0,0,0,0,0,0,0,0,0,0,3.7201,3.7317,3.7072,3.7048,3.7044,3.6933,3.693,3.6928,3.692,3.6922,3.6925,3.6927,3.6777,3.6769,3.6761,3.6661,0,0,3.6736,3.6732,0,0,0,0,0,0,0,0,3.7208,3.7192,3.7053,3.7049,3.7045,3.6946,3.6963,3.6838,3.6919,3.6967,3.6925,3.6928,3.6828,3.6816,3.6784,3.6654,3.6647,3.6735,3.673,3.6726,3.6724,0,0,0,0,0,0,0,3.7216,3.7198,3.7016,3.7051,3.7046,3.7041,3.7027,3.6939,3.6885,3.6963,3.6962,3.6946,3.6827,3.6792,3.6781,3.6645,3.6735,3.6728,3.6723,3.6719,3.6425,3.6422,0,0,0,0,0,0,3.7231,3.7205,3.7021,3.7012,3.7135,3.7035,3.7019,3.6976,3.6886,3.6875,3.6944,3.6946,3.6805,3.679,3.6775,3.6652,3.6726,3.6718,3.6714,3.6428,3.6424,3.6421,0,0,0,0,0,0,3.7236,3.7214,3.7026,3.7108,3.7084,3.7028,3.698,3.6972,3.6937,3.6872,3.6862,3.692,3.6807,3.6787,3.669,3.6647,3.6715,3.6707,3.6431,3.6427,3.6423,3.6405,0,0,0,0,0,0,3.7243,3.7216,3.718,3.7108,3.708,3.6946,3.6977,3.6967,3.6924,3.6925,3.6847,3.6836,3.6807,3.6703,3.6682,3.6636,3.6701,3.6435,3.6429,3.6424,3.6409,3.6401,3.6394,0,0,0,0,0,3.7252,3.7179,3.7178,3.7156,3.7033,3.6944,3.6927,3.6898,3.6921,3.6882,3.684,3.6838,3.6655,3.6693,3.6669,3.6621,3.6437,3.6431,3.6425,3.6413,3.6403,3.6394,0,0,0,0,0,0,3.7244,3.7169,3.7167,3.7068,3.7013,3.6943,3.6893,3.6888,3.6823,3.6827,3.6791,3.6773,3.6677,3.6639,3.6682,3.6519,3.6548,3.6537,3.6547,3.6537,3.6529,3.654,3.6694,0,0,0,0,0,3.7231,3.7168,3.7104,3.7023,3.6995,3.6949,3.6909,3.6892,3.6831,3.6807,3.6758,3.6697,3.6626,3.6579,3.651,3.6404,3.6386,3.6359,3.6351,3.6345,3.6335,3.6276,3.6263,3.6401,3.6401,3.6401,0,0,3.7203,3.7154,3.7115,3.702,3.6975,3.6907,3.6929,3.6856,3.6805,3.6795,3.6701,3.6663,3.6592,3.6491,3.6443,3.6456,3.6293,3.6337,3.6333,3.6326,3.6268,3.6255,3.6243,3.6396,3.6397,3.6398,0,0,3.7117,3.7074,3.7002,3.6957,3.689,3.6859,3.6842,3.6772,3.6748,3.6654,3.6645,3.6582,3.646,3.641,3.6369,3.6264,3.6259,3.6243,3.6201,3.6143,3.6132,3.6122,3.6084,3.6071,3.6233,3.6233,3.6233,0,3.7089,3.699,3.6964,3.6892,3.685,3.6841,3.6766,3.6722,3.6634,3.6604,3.662,3.6468,3.6419,3.6306,3.6281,3.6248,3.6225,3.6251,3.6137,3.6126,3.6117,3.608,3.6066,3.6232,3.6232,3.6232,3.6232,0,3.6959,3.689,3.6839,3.6758,3.671,3.6636,3.6597,3.6551,3.6538,3.6505,3.6409,3.6351,3.627,3.6242,3.6227,3.6125,3.6136,3.6145,3.6173,3.6102,3.6067,3.6053,3.6229,3.623,3.623,3.6231,0,0,3.6862,3.677,3.6751,3.6715,3.664,3.6584,3.651,3.6434,3.6394,3.6334,3.6269,3.6167,3.6175,3.6128,3.6107,3.6057,3.5977,3.6072,3.607,3.6056,3.586,3.5854,3.5838,3.5974,3.5971,3.5969,3.5866,0,3.6768,3.6639,3.6614,3.65,3.6435,3.6426,3.636,3.6306,3.6274,3.6211,3.6174,3.6102,3.6119,3.6091,3.604,3.5998,3.5937,3.6005,3.5911,3.5908,3.5929,3.582,3.5812,3.5718,3.5852,3.585,3.5848,0,3.664,3.658,3.6461,3.6396,3.6367,3.6309,3.6237,3.6179,3.6116,3.6096,3.6045,3.603,3.5949,3.5983,3.587,3.5917,3.5877,3.585,3.5845,3.5835,3.5873,3.5805,3.5687,3.5673,3.5826,3.5828,3.583,0,3.6581,3.647,3.6385,3.6353,3.6275,3.6234,3.6199,3.6139,3.6095,3.6031,3.6002,3.5928,3.5887,3.5829,3.5794,3.5822,3.5684,3.5714,3.5663,3.5663,3.5633,3.5635,3.5506,3.5609,3.5609,3.5609,3.5609,0,3.6477,3.6405,3.6357,3.6305,3.6222,3.6193,3.6111,3.6076,3.6023,3.5961,3.5947,3.5889,3.5847,3.5781,3.5753,3.5664,3.5645,3.5625,3.5618,3.5626,3.5628,3.5598,3.5604,3.5605,3.5606,3.5607,3.5608,0,3.6397,3.6363,3.6269,3.6204,3.6185,3.6127,3.6069,3.6016,3.5985,3.5906,3.5886,3.5834,3.5757,3.5717,3.5619,3.56,3.55,3.5497,3.5522,3.5519,3.5469,3.5474,3.5316,3.5293,3.5411,3.541,3.5409,0,3.6333,3.6278,3.6207,3.6166,3.6131,3.6065,3.6021,3.5989,3.5943,3.5868,3.5824,3.5747,3.5683,3.556,3.5512,3.5437,3.5431,3.5381,3.542,3.5429,3.543,3.5433,3.5427,3.5374,3.5373,3.5372,3.5371,0,3.6223,3.6209,3.6148,3.608,3.6028,3.5972,3.5917,3.5884,3.5843,3.5791,3.5714,3.5665,3.5567,3.549,3.5412,3.5372,3.5363,3.536,3.5343,3.535,3.5367,3.5357,3.5502,3.5363,3.5364,3.5364,3.5365,3.5365,3.6148,3.6099,3.6042,3.5973,3.5929,3.5878,3.5825,3.5788,3.5724,3.5644,3.5628,3.5546,3.5483,3.5378,3.5336,3.527,3.528,3.5256,3.525,3.5245,3.5243,3.5379,3.5255,3.5255,3.5255,3.5255,3.5256,0,3.6037,3.6,3.5938,3.5863,3.5808,3.5809,3.5748,3.5701,3.5631,3.5575,3.5513,3.5424,3.5349,3.5296,3.5219,3.5176,3.517,3.5156,3.5159,3.5149,3.5238,3.526,3.5162,3.5162,3.5162,3.5162,3.5162,3.5163,3.5973,3.5889,3.5868,3.5761,3.5724,3.5646,3.5611,3.5562,3.5518,3.542,3.5359,3.5326,3.527,3.5189,3.512,3.5106,3.5077,3.5064,3.505,3.5133,3.5143,3.5153,3.5173,3.5059,3.5058,3.4966,3.4965,3.4965]}]]